Regional Weather Roundup
Issued by NWS

Home | Current Version | Previous Version | Text Only | Print | Product List | Glossary On
Versions: 1 2 3 4 5 6 7 8 9 10 11 12 13 14 15 16 17 18 19 20 21 22 23 24 25 26 27 28 29 30 31 32 33 34 35 36 37 38 39 40 41 42 43 44 45 46 47 48 49 50
000
ASUS42 KTBW 241517
RWRFL
FLORIDA REGIONAL WEATHER ROUNDUP
NATIONAL WEATHER SERVICE TAMPA BAY RUSKIN FL
1100 AM EDT SUN MAY 24 2015

NOTE: "FAIR" INDICATES FEW OR NO CLOUDS BELOW 12,000 FEET WITH NO
SIGNIFICANT WEATHER AND/OR OBSTRUCTIONS TO VISIBILITY.


FLZ001>010-012>015-112-114-115-241600-
PANHANDLE FLORIDA

CITY           SKY/WX    TMP DP  RH WIND       PRES   REMARKS
PENSACOLA      PTSUNNY   80  75  84 SE18      30.17S
PENSACOLA NAS  PTSUNNY   84  76  76 SE24G30   30.16R
CRESTVIEW      CLOUDY    82  71  69 SE10      30.22R
DUKE FIELD     FAIR      81  71  72 SE15      30.19S
VALPARAISO     PTSUNNY   84  73  69 SE24      30.20S
MARY ESTHER    MOSUNNY   82  73  75 SE16G28   30.18
TRI COUNTY     CLOUDY    80  71  74 VRB6      30.24R
PANAMA CITY    PTSUNNY   82  71  69 E12       30.21R
APALACHICOLA   CLOUDY    84  72  67 E15G21    30.22R

STATION/POSITION SKY/WX   TEMP    WIND        PRES    WAVE   SWELL
                          AIR SEA DIR/SP/G            HT/PER HT/PER
                          (F)     (DEG/KT/KT) (MB)    (FT/S) (FT/S)
30.1N   87.6W              81 80  130/ 16/ 19 1020.3R   4/ 5
29.2N   88.2W              80 80  130/ 17/ 19 1020.6R   4/ 6
28.8N   86.0W              80 81  120/ 16/ 21 1021.5    5/ 5
PANAMA CITY BEAC           79 79  110/ 15/ 20 1022.5R
CAPE SAN BLAS    NOT AVBL
TOWER C                    78     100/ 18/ 18 1023.1R
28.5N   84.5W              80 80  110/ 16/ 19 1022.2R   4/ 6

$$
FLZ011-016>038-118-127-128-134-139-239-241600-
NORTH FLORIDA

CITY           SKY/WX    TMP DP  RH WIND       PRES   REMARKS
MARIANNA       PTSUNNY   81  71  71 E12       30.23S
TALLAHASSEE    PTSUNNY   83  68  60 E14       30.24F
PERRY          MOSUNNY   82  67  61 E12       30.26S
CROSS CITY       N/A     84  68  58 VRB7      30.23F
LAKE CITY      FAIR      79  64  61 E9        30.27F
GAINESVILLE    SUNNY     82  66  58 E12       30.26S
MAYPORT NAS    SUNNY     82  63  52 NE10      30.29S
JACKSONVILLE   MOSUNNY   81  61  50 E10       30.28F
JAX NAS        MOSUNNY   84  60  44 E13       30.29S
JAX CRAIG      SUNNY     82  63  52 E14G21    30.29S
JAX CECIL      MOSUNNY   81  63  54 E14G21    30.28S
FERNANDINA BEA FAIR      84  66  54 E12       30.29S
ST AUGUSTINE   PTSUNNY   81  69  67 E12       30.29S

STATION/POSITION SKY/WX   TEMP    WIND        PRES    WAVE   SWELL
                          AIR SEA DIR/SP/G            HT/PER HT/PER
                          (F)     (DEG/KT/KT) (MB)    (FT/S) (FT/S)
SHELL POINT                78     110/  8/ 13   N/A
KEATON BEACH               80      80/ 11/ 15 1023.9F
CEDAR KEY                  79      90/ 14/ 15 1023.6F
FERNANDINA                 78 78   70/  8/ 12 1025.4R
30.7N   81.3W                 77                N/A     5/ 6
MAYPORT                    77 77   70/ 13/ 16 1025.9S
31.4N   80.9W              75 75   80/ 10/ 10 1026.9S   4/ 7   3/ 7
ST AUGUSTINE               76 76   60/ 10/ 11 1026.2R

$$
FLZ040-043>046-052-053-057-058-063-144-241600-
INTERIOR CENTRAL FLORIDA

CITY           SKY/WX    TMP DP  RH WIND       PRES   REMARKS
OCALA          MOSUNNY   84  68  58 E9        30.24F
THE VILLAGES     N/A     84  73  70 E8        30.14S
LEESBURG       MOSUNNY   85  69  58 E13       30.24F
SANFORD        PTSUNNY   83  70  64 E14       30.24S
ORLANDO EXEC   PTSUNNY   85  70  60 E17       30.23S
ORLANDO INTL   PTSUNNY   85  72  65 NE13      30.22F
KISSIMMEE      PTSUNNY   84  73  70 E14       30.23S
WINTER HAVEN   MOSUNNY   87  71  58 E12       30.22F
LAKELAND       PTSUNNY   84  72  65 E12G20    30.21F
BARTOW         PTSUNNY   82  70  65 E12       30.22S
OKEECHOBEE     MOSUNNY   84  72  65 E8        30.21S

$$
FLZ041-047-054-059-064-141-147-241600-
EAST CENTRAL FLORIDA

CITY           SKY/WX    TMP DP  RH WIND       PRES   REMARKS
ORMOND BEACH   PTSUNNY   81  68  65 E12G17    30.26S
DAYTONA BEACH  PTSUNNY   82  71  69 NE13      30.26S
DELAND           N/A     82  70  65 E10       30.26S
NEW SMYRNA BEA MOSUNNY   84  72  65 E15       30.27R
JFK SPACE CTR  PTSUNNY   82  72  69 E13       30.23S
TITUSVILLE     PTSUNNY   82  73  74 E16       30.24S
CAPE CANAVERAL SUNNY     84  74  71 E12G20    30.22S
PATRICK AFB    SUNNY     83  74  74 E14       30.22S
MELBOURNE      MOSUNNY   83  73  72 E14       30.22S
VERO BEACH     PTSUNNY   85  71  63 E13       30.22S
FT PIERCE      MOSUNNY   83  73  72 E14       30.22S
STUART         MOSUNNY   82  68  61 E14       30.22

STATION/POSITION SKY/WX   TEMP    WIND        PRES    WAVE   SWELL
                          AIR SEA DIR/SP/G            HT/PER HT/PER
                          (F)     (DEG/KT/KT) (MB)    (FT/S) (FT/S)
28.5N   80.2W              79 80   70/ 14/ 16 1023.8S
28.9N   78.5W              79 80   80/ 14/ 16 1024.4R
TRIDENT PIER               82 82   60/ 12/ 15 1024.3R
28.4N   80.5W                 80                N/A     3/ 8
27.5N   80.2W                 82                N/A     4/ 8

$$
FLZ050-056-061-142-242-148-248-149-249-151-251-155-255-
160-260-241600-
WEST CENTRAL FLORIDA

CITY           SKY/WX    TMP DP  RH WIND       PRES   REMARKS
CRYSTAL RIVER  PTSUNNY   84  70  61 E8        30.22S
INVERNESS      CLOUDY    82  72  69 E7        30.23F
BROOKSVILLE    MOSUNNY   84  71  65 E14       30.22S
CLEARWATER     MOSUNNY   83  74  74 E9        30.19F
TAMPA INTL     PTSUNNY   84  71  65 E8        30.20F
TAMPA EXEC     PTSUNNY   88  73  62 E6        30.21S HX  96
PLANT CITY     MOSUNNY   86  73  66 E13       30.22F
MACDILL AFB    SUNNY     85  75  73 SE14      30.19S
PETER O KNIGHT MOSUNNY   88  73  62 E8        30.19F HX  96
ST PETERSBURG  MOSUNNY   84  74  71 E14       30.18F
SARASOTA       MOSUNNY   86  72  62 SE15      30.17S
VENICE         FAIR      84  72  65 E9G20     30.19S

STATION/POSITION SKY/WX   TEMP    WIND        PRES    WAVE   SWELL
                          AIR SEA DIR/SP/G            HT/PER HT/PER
                          (F)     (DEG/KT/KT) (MB)    (FT/S) (FT/S)
CEDAR KEY                  79      90/ 14/ 15 1023.6F
28.5N   84.5W              80 80  110/ 16/ 19 1022.2R   4/ 6
27.3N   84.2W                 81                N/A     4/ 6
CLEARWATER BEACH           81 84   80/  9/ 16 1022.6S
MIDDLE TAMPA BAY           81     110/ 11/ 13 1022.6S
VENICE                     84 84   90/ 10/ 14 1021.5S

$$
FLZ066-069-070-075>078-162-262-165-265-241600-
SOUTHWEST FLORIDA AND KEYS

CITY           SKY/WX    TMP DP  RH WIND       PRES   REMARKS
PUNTA GORDA    PTSUNNY   84  72  67 E10       30.20S
FT MYERS       MOSUNNY   86  70  58 E13       30.17S
SOUTHWEST INTL MOSUNNY   84  67  56 E14G21    30.18S
NAPLES         MOSUNNY   83  72  69 E12       30.17S
MARCO ISLAND     N/A     86  72  62 E10G16    30.17F
IMMOKALEE      SUNNY    N/A N/A N/A E13       30.20R
MARATHON       MOSUNNY   87  75  67 E8G16     30.15S HX  96
KEY WEST NAS   PTSUNNY   87  74  64 E16       30.14S HX  95
KEY WEST INTL  MOSUNNY   86  75  69 E14       30.15S HX  95

STATION/POSITION SKY/WX   TEMP    WIND        PRES    WAVE   SWELL
                          AIR SEA DIR/SP/G            HT/PER HT/PER
                          (F)     (DEG/KT/KT) (MB)    (FT/S) (FT/S)
VENICE                     84 84   90/ 10/ 14 1021.5S
NAPLES                     81 84  100/  8/ 11 1021.7R
26.0N   85.6W              82 82  110/ 14/ 16 1019.8R   3/ 5
DRY TORTUGAS               82     120/ 16/ 17 1020.2R
NW FL BAY                  83     110/ 13/ 16 1021.2
SAND KEY                   82     100/ 17/ 19 1020.6R
SOMBRERO KEY               82     100/ 17/ 17 1021.5R
LONG KEY                   82 84   90/ 11/ 14 1022.0R
MOLASSES REEF              81 83  110/ 15/ 16 1021.3R

$$
FLZ067-068-071>074-168-172>174-241600-
SOUTHEAST FLORIDA

CITY           SKY/WX    TMP DP  RH WIND       PRES   REMARKS
W PALM BEACH   MOSUNNY   85  72  65 E13       30.21R
FT LAUDER-EXEC MOSUNNY   86 N/A N/A E15       30.19R
FT LAUDERDALE  PTSUNNY   85  74  69 E17       30.18R
POMPANO BEACH  MOSUNNY   86  72  62 E12       30.19R
PEMBROKE PINES PTSUNNY   85  72  65 E13       30.19S
OPA LOCKA      PTSUNNY   86  73  65 E14       30.18R
MIAMI          PTSUNNY   86  71  60 E13       30.18R
WEST KENDALL   MOSUNNY   89  71  55 E15G24    30.18R HX  95
HOMESTEAD      SUNNY     86  73  64 E13       30.17R

STATION/POSITION SKY/WX   TEMP    WIND        PRES    WAVE   SWELL
                          AIR SEA DIR/SP/G            HT/PER HT/PER
                          (F)     (DEG/KT/KT) (MB)    (FT/S) (FT/S)
PORT EVERGLADES            83      70/  9/ 13 1022.3R
VIRGINIA KEY               82 84   80/ 12/ 14 1021.3R
LAKE WORTH                 81 82   80/ 10/ 12 1022.2R
SETTLEMENT POINT           82     100/ 11/ 13 1023.6R

$$



USA.gov is the U.S. government's official web portal to all federal, state and local government web resources and services.